STARLINK-36882, 67980

Orbit data source: Space-Track

STARLINK-36882, 67980 is a payload satellite owned by SpaceX/Seattle (US) in SSO that was launched on Wed, 25 Feb 2026 UTC via an FALCON 9 launch vehicle from the Air Force Western Test Range (AFWTR). Payload-class satellites include a variety of spacecraft equipped with specific instruments for various scientific and technological missions. These include communications satellites like Starlink; space stations such as the ISS; scientific satellites like the Hubble; Earth observation satellites from companies like Planet Labs, Umbra, and HawkEye 360; GPS; miniature CubeSats for education and research; and military/defense satellites.

Loading next visibility...
Identifier
67980, 2026-038V
Orbit
SSO
Country
Flag of USUS
Related business
Manufacturer
SpaceX/Seattle
Mission
Operational Commercial Communications
Bus & Motor
STARLINK V2MO, Unknown motor
Mass
575 kg wet, ~530 kg dry
Launch date (UTC)
2026-02-25 (4 months ago)
Launch vehicle
FALCON 9
Launch site
Air Force Western Test Range (AFWTR)
Object type
Payload
Rocket body
Debris
Shape & HBR
Box + 2 Pan, 17.7 m
Radar Cross Section
36.964 m², Large (>1 m²)

Expand to show TLE details & history
Last TLE update: 20 hours ago

TLE from 20 hours ago
0 STARLINK-36882
1 67980U 26038V   26171.01452761  .00014399  00000-0  44723-3 0  9991
2 67980  97.2843 180.7229 0001816 103.0015 257.1431 15.33463235 18928
Epoch: 2026-06-20T00:20Z
TLE epoch observation values (Epoch: 2026-06-20T00:20:55.185Z)
Latitude
0.00001°
Longitude
-92.74227°
Altitude
468.878 km
Speed
7.632 km/s
True Right ascension
12h 02m 53s
True Declination
0° 00' 00"
Sunlit
Object was in daylight at epoch
Visualization orbit readout
Latitude
Unknown
Longitude
Unknown
Altitude
Unknown
Speed
Unknown
Apparent Right ascension
Unknown
Apparent Declination
Unknown
Sunlit
N/A
Visualization observer readout
Local Sidereal Time
07:16:38
Azimuth
Unknown
Elevation
Unknown
Doppler factor
Unknown
Orbital elements
Apogee altitude
463.674 km
Perigee altitude
461.189 km
Semi-major axis
6,840.569 km
Eccentricity
0.00018
Inclination
97.2843°
RAAN
180.7229°
Arg. of periapsis
103.0015°
True anomaly
257.12281°
Mean anomaly
257.1431°
Eccentric anomaly
257.13296°
Mean motion
3.83623 °/min
Orbital period
93.84 mins
BSTAR
0.00044723
Loading maneuver chart data...
Computing Atmospheric mass density...
Loading historical data...
Loading historical data...
Loading historical data...
Loading historical data...
Loading historical data...
Loading historical data...
Loading historical data...

Documentation

Showing up to 5 results
|